DW2229 Weather Reports


Display with metric or nautical units.
time (UTC)temp
F
wind
direction
speed
MPH
gust
MPH
rain 1hr
in
rain 24hr
in
rain mn
in
humidity
%
barometer
mb
20190817102331 85 266 0.0 2.0 0.00 0.00 0.00 87 1012.7
20190817101328 85 266 0.0 6.0 0.00 0.00 0.00 86 1012.8
20190817100331 85 264 1.0 4.0 0.00 0.00 0.00 86 1012.8
20190817095329 85 205 0.0 4.0 0.00 0.00 0.00 86 1012.8
20190817094344 85 250 1.0 4.0 0.00 0.00 0.00 86 1012.8
20190817093341 85 250 1.0 4.0 0.00 0.00 0.00 86 1012.6
20190817092336 85 250 0.0 4.0 0.00 0.00 0.00 86 1012.7
20190817091337 85 254 1.0 4.0 0.00 0.00 0.00 85 1012.6
20190817090334 85 219 1.0 3.0 0.00 0.00 0.00 85 1012.8
20190817085330 85 231 1.0 3.0 0.00 0.00 0.00 86 1013.0
20190817084345 85 259 0.0 3.0 0.00 0.00 0.00 85 1013.1
20190817083343 86 256 0.0 4.0 0.00 0.00 0.00 85 1013.2
20190817082342 86 268 0.0 3.0 0.00 0.00 0.00 85 1013.2
20190817081336 86 243 0.0 3.0 0.00 0.00 0.00 85 1013.4
20190817080332 86 254 0.0 5.0 0.00 0.00 0.00 84 1013.4
20190817075329 86 242 1.0 4.0 0.00 0.00 0.00 84 1013.5
20190817074328 86 263 1.0 4.0 0.00 0.00 0.00 84 1013.6
20190817073344 86 237 1.0 6.0 0.00 0.00 0.00 84 1013.4
20190817072341 86 229 1.0 5.0 0.00 0.00 0.00 84 1013.5
20190817071337 86 259 2.0 6.0 0.00 0.00 0.00 84 1013.6
20190817070336 86 214 1.0 6.0 0.00 0.00 0.00 84 1013.9
20190817065338 86 207 1.0 5.0 0.00 0.00 0.00 84 1014.0
20190817064334 86 207 1.0 7.0 0.00 0.00 0.00 85 1013.9
20190817063334 86 198 0.0 7.0 0.00 0.00 0.00 85 1013.9
20190817062331 86 217 1.0 7.0 0.00 0.00 0.00 85 1014.0
20190817061331 87 217 1.0 6.0 0.00 0.00 0.00 85 1014.0
20190817060329 87 195 2.0 7.0 0.00 0.00 0.00 85 1014.1
20190817055345 87 224 1.0 4.0 0.00 0.00 0.00 84 1014.3
20190817054340 87 216 0.0 5.0 0.00 0.00 0.00 84 1014.4
20190817053338 87 182 1.0 6.0 0.00 0.00 0.00 83 1014.2
20190817052338 87 219 1.0 6.0 0.00 0.00 0.00 83 1014.3
20190817051334 87 223 0.0 6.0 0.00 0.00 0.00 83 1014.2
20190817050330 87 235 0.0 7.0 0.00 0.00 0.00 82 1014.1
20190817045347 87 202 1.0 5.0 0.00 0.00 0.00 81 1014.3
20190817044327 87 191 1.0 4.0 0.00 0.00 0.00 81 1014.2
20190817043345 87 181 2.0 7.0 0.00 0.00 0.00 80 1014.2
20190817042345 87 225 1.0 4.0 0.00 0.00 0.00 80 1014.2
20190817041341 87 238 0.0 5.0 0.00 0.00 0.00 80 1014.2
20190817040339 87 227 1.0 4.0 0.00 0.00 0.00 80 1014.2
20190817035340 87 213 1.0 5.0 0.00 0.00 0.00 79 1014.2
20190817034337 87 225 1.0 4.0 0.00 0.00 0.00 79 1014.2
20190817033335 87 246 0.0 4.0 0.00 0.00 0.00 78 1014.0
20190817032330 88 208 0.0 3.0 0.00 0.00 0.00 78 1014.0
20190817031329 88 225 1.0 4.0 0.00 0.00 0.00 78 1014.0
20190817030346 88 225 1.0 5.0 0.00 0.00 0.00 78 1013.9
20190817025341 88 226 0.0 4.0 0.00 0.00 0.00 77 1013.8
20190817024336 88 246 1.0 4.0 0.00 0.00 0.00 77 1013.7
20190817023333 88 239 1.0 4.0 0.00 0.00 0.00 77 1013.6
20190817022334 88 240 1.0 3.0 0.00 0.00 0.00 76 1013.6
20190817021331 88 233 0.0 3.0 0.00 0.00 0.00 77 1013.6
20190817020329 88 232 0.0 3.0 0.00 0.00 0.00 78 1013.5
20190817015344 88 234 0.0 4.0 0.00 0.00 0.00 77 1013.4
20190817014343 88 258 1.0 5.0 0.00 0.00 0.00 77 1013.4
20190817013340 88 230 1.0 5.0 0.00 0.00 0.00 77 1013.2
20190817012336 88 272 1.0 4.0 0.00 0.00 0.00 77 1013.1
20190817011330 89 221 1.0 3.0 0.00 0.00 0.00 76 1013.1
20190817010347 89 244 1.0 4.0 0.00 0.00 0.00 76 1013.1
20190817005350 89 252 1.0 3.0 0.00 0.00 0.00 75 1013.1
20190817004330 89 231 0.0 3.0 0.00 0.00 0.00 75 1013.0
20190817003345 89 233 0.0 3.0 0.00 0.00 0.00 75 1012.9
20190817002341 90 233 0.0 6.0 0.00 0.00 0.00 75 1012.8
20190817001337 90 206 1.0 5.0 0.00 0.00 0.00 75 1012.7
20190817000339 90 228 1.0 4.0 0.00 0.00 0.00 73 1012.7
20190816235335 91 234 1.0 4.0 0.00 0.01 0.00 72 1012.5
20190816234348 91 217 1.0 8.0 0.00 0.01 0.00 70 1012.5
20190816233354 91 266 1.0 5.0 0.00 0.01 0.00 70 1012.3
20190816232336 91 221 1.0 8.0 0.00 0.01 0.00 70 1012.3
20190816231346 92 168 2.0 7.0 0.00 0.01 0.00 70 1012.3
20190816230343 92 267 1.0 5.0 0.00 0.01 0.00 69 1012.1
20190816225340 92 231 2.0 6.0 0.00 0.03 0.00 69 1012.2
20190816224335 92 252 1.0 5.0 0.00 0.03 0.00 69 1012.2
20190816223337 93 226 2.0 7.0 0.00 0.03 0.00 68 1012.3
20190816222332 93 236 2.0 5.0 0.00 0.03 0.00 68 1012.4
20190816221327 93 219 2.0 7.0 0.00 0.03 0.00 68 1012.4
20190816220343 93 207 1.0 7.0 0.00 0.03 0.00 68 1012.5
20190816215339 94 224 2.0 9.0 0.00 0.03 0.00 67 1012.5
20190816214340 94 284 2.0 7.0 0.00 0.03 0.00 65 1012.4
20190816213336 94 246 1.0 6.0 0.00 0.03 0.00 66 1012.4
20190816212350 94 282 2.0 8.0 0.00 0.03 0.00 66 1012.5
20190816211328 94 213 2.0 8.0 0.00 0.03 0.00 66 1012.7
20190816210346 94 248 1.0 6.0 0.00 0.03 0.00 66 1012.6
20190816205347 94 284 2.0 6.0 0.00 0.03 0.00 65 1012.7
20190816204338 94 278 2.0 7.0 0.00 0.03 0.00 65 1012.8
20190816203349 94 212 1.0 8.0 0.00 0.03 0.00 66 1012.9
20190816202335 94 248 2.0 10.0 0.00 0.03 0.00 66 1012.9
20190816201338 94 225 3.0 7.0 0.00 0.03 0.00 65 1013.0
20190816200353 94 235 1.0 7.0 0.00 0.03 0.00 65 1013.1
20190816195340 94 229 2.0 7.0 0.00 0.03 0.00 66 1013.2
20190816194346 94 221 2.0 7.0 0.00 0.03 0.00 64 1013.4
20190816193339 95 268 2.0 8.0 0.00 0.03 0.00 64 1013.5
20190816192346 95 278 3.0 7.0 0.00 0.03 0.00 63 1013.5
20190816191345 96 234 2.0 7.0 0.00 0.03 0.00 61 1013.6
20190816190345 96 222 2.0 4.0 0.00 0.03 0.00 60 1013.6
20190816185342 95 246 2.0 7.0 0.00 0.03 0.00 55 1013.7
20190816184338 94 252 3.0 10.0 0.00 0.03 0.00 58 1013.7
20190816183352 93 294 4.0 11.0 0.00 0.03 0.00 62 1013.8
20190816182340 92 169 3.0 8.0 0.00 0.03 0.00 63 1013.9
20190816181345 91 304 7.0 11.0 0.00 0.03 0.00 65 1014.1
20190816180345 91 276 7.0 11.0 0.00 0.03 0.00 63 1014.2
20190816175338 91 289 3.0 12.0 0.00 0.03 0.00 67 1014.3
20190816174333 91 288 6.0 11.0 0.00 0.03 0.00 66 1014.3
20190816173336 90 285 6.0 13.0 0.00 0.03 0.00 66 1014.4
20190816172331 90 283 6.0 11.0 0.00 0.03 0.00 67 1014.5
20190816171346 90 296 6.0 10.0 0.00 0.03 0.00 69 1014.6
20190816170342 89 288 7.0 10.0 0.00 0.03 0.00 68 1014.7
20190816165342 89 281 6.0 10.0 0.00 0.03 0.00 70 1014.8
20190816164337 89 289 6.0 10.0 0.00 0.03 0.00 72 1014.9
20190816163336 88 319 5.0 8.0 0.00 0.03 0.00 75 1015.1
20190816162346 88 315 5.0 11.0 0.00 0.03 0.00 76 1015.1
20190816161341 88 286 5.0 8.0 0.00 0.03 0.00 78 1015.4
20190816160344 88 309 4.0 8.0 0.00 0.03 0.00 77 1015.2
20190816155339 88 302 5.0 8.0 0.00 0.03 0.00 78 1015.0
20190816154334 88 298 4.0 8.0 0.00 0.03 0.00 78 1014.8
20190816153332 87 312 5.0 10.0 0.00 0.03 0.00 79 1014.8
20190816152333 88 273 4.0 10.0 0.00 0.03 0.00 80 1014.8
20190816151346 88 291 3.0 10.0 0.00 0.03 0.00 80 1014.6
20190816150345 88 276 4.0 10.0 0.00 0.03 0.00 80 1014.5
20190816145343 87 296 4.0 8.0 0.00 0.03 0.00 80 1014.6
20190816144340 87 294 4.0 10.0 0.00 0.03 0.00 81 1014.5
20190816143343 87 291 6.0 9.0 0.00 0.03 0.00 81 1014.4
20190816142338 87 292 3.0 8.0 0.00 0.03 0.00 80 1014.4
20190816140342 87 286 4.0 10.0 0.00 0.03 0.00 82 1014.2
20190816135338 86 280 2.0 4.0 0.00 0.03 0.00 83 1014.3
20190816134335 85 284 2.0 6.0 0.00 0.03 0.00 86 1014.2
20190816133334 85 300 2.0 4.0 0.00 0.03 0.00 87 1014.2
20190816132331 84 315 1.0 3.0 0.00 0.03 0.00 88 1014.2
20190816131345 84 315 1.0 3.0 0.00 0.03 0.00 88 1014.1
20190816130341 84 315 1.0 4.0 0.00 0.03 0.00 88 1014.1
20190816125344 83 315 0.0 4.0 0.00 0.03 0.00 89 1014.1
20190816124339 83 326 0.0 4.0 0.00 0.03 0.00 89 1014.1
20190816123337 82 329 1.0 4.0 0.00 0.03 0.00 90 1014.1
20190816122336 82 338 3.0 6.0 0.00 0.03 0.00 90 1014.1
20190816121335 81 337 0.0 0.0 0.00 0.03 0.00 91 1014.1
20190816120332 81 339 0.0 0.0 0.00 0.03 0.00 91 1014.1
20190816115328 81 339 0.0 0.0 0.00 0.03 0.00 92 1014.1
20190816114343 81 339 0.0 2.0 0.00 0.03 0.00 92 1014.0
20190816113341 82 339 4.0 8.0 0.00 0.03 0.00 91 1013.9
20190816112341 82 205 0.0 0.0 0.00 0.03 0.00 92 1013.8
20190816111339 82 205 0.0 0.0 0.00 0.03 0.00 91 1013.7
20190816110336 82 205 0.0 0.0 0.00 0.03 0.00 91 1013.4
20190816105332 82 205 0.0 0.0 0.00 0.03 0.00 91 1013.3
20190816104332 82 205 0.0 0.0 0.00 0.03 0.00 91 1013.1
20190816103330 82 205 0.0 0.0 0.00 0.03 0.00 91 1013.0